Simultaneous Nadir Overpasses (SNOs) Predictions

Prediction of SNOs between GOES-15 and NPP Satellite Orbit:

Table of predicted SNOs for the next 14.0 days since TLE Epoch: 5/28/2016
Index Date Time (GOES-15) GOES-15 Lat,Lon NPP Lat,Lon Distance(km) Time Diff (sec)
1 05/28/2016 22:25:06 -0.02,-134.78 0.06,-134.45 37.58 80
2 05/31/2016 10:25:29 0.02,-134.91 0.10,-135.19 32.73 80
3 06/01/2016 10:09:24 0.02,-134.95 -0.93,-130.66 488.05 80
4 06/02/2016 22:28:41 -0.01,-134.98 -0.26,-135.97 113.66 80
5 06/03/2016 22:12:36 -0.01,-135.01 0.77,-131.44 406.71 80
6 06/05/2016 10:31:45 -0.00,-135.09 0.35,-136.72 185.93 80
7 06/06/2016 10:15:40 0.00,-135.12 -0.68,-132.19 334.06 80
8 06/07/2016 22:34:56 0.01,-135.14 -0.50,-137.50 268.73 80
9 06/08/2016 22:18:51
